CW8284 Weather Reports


Display with metric or nautical units.
time (UTC)temp
F
wind
direction
speed
MPH
gust
MPH
rain 1hr
in
rain 24hr
in
rain mn
in
humidity
%
barometer
mb
20260505024913 59 225 3.0 5.0 0.00 0.00 0.00 1013.1
20260505022413 59 225 3.0 4.0 0.00 0.00 0.00 1013.0
20260505021414 60 225 2.0 5.0 0.00 0.00 0.00 1013.0
20260505021113 60 315 3.0 7.0 0.00 0.00 0.00 1012.9
20260505020713 60 270 3.0 6.0 0.00 0.00 0.00 1012.8
20260505020613 60 292 3.0 6.0 0.00 0.00 0.00 1012.8
20260505020513 60 247 2.0 4.0 0.00 0.00 0.00 1012.8
20260505020413 60 270 3.0 4.0 0.00 0.00 0.00 1012.8
20260505020313 60 270 2.0 4.0 0.00 0.00 0.00 1012.8
20260505015913 60 202 2.0 5.0 0.00 0.00 0.00 1012.8
20260505015813 60 225 4.0 6.0 0.00 0.00 0.00 1012.8
20260505015113 60 225 4.0 6.0 0.00 0.00 0.00 1012.9
20260505014113 60 180 6.0 9.0 0.00 0.00 0.00 1012.9
20260505014013 60 225 4.0 9.0 0.00 0.00 0.00 1013.0
20260505013313 61 225 5.0 7.0 0.00 0.00 0.00 1013.0
20260505012913 61 180 6.0 8.0 0.00 0.00 0.00 1012.8
20260505012813 61 225 6.0 10.0 0.00 0.00 0.00 1012.8
20260505012713 61 202 5.0 7.0 0.00 0.00 0.00 1013.0
20260505012613 61 202 6.0 9.0 0.00 0.00 0.00 1012.8
20260505012514 61 225 6.0 9.0 0.00 0.00 0.00 1013.0
20260505012413 61 225 7.0 10.0 0.00 0.00 0.00 1012.9
20260505011413 62 247 5.0 7.0 0.00 0.00 0.00 1012.8
20260505011014 62 225 6.0 10.0 0.00 0.00 0.00 1012.8
20260505010313 62 225 7.0 9.0 0.00 0.00 0.00 1012.7
20260505010213 62 180 6.0 10.0 0.00 0.00 0.00 1012.9
20260505010113 63 225 6.0 8.0 0.00 0.00 0.00 1012.6
20260505010013 63 225 6.0 9.0 0.00 0.00 0.00 1013.0
20260505005913 63 247 5.0 6.0 0.00 0.00 0.00 1012.7
20260505005213 63 202 5.0 8.0 0.00 0.00 0.00 1012.7
20260505005113 63 247 5.0 8.0 0.00 0.00 0.00 1012.8
20260505004713 63 225 2.0 5.0 0.00 0.00 0.00 1012.8
20260505004614 63 180 5.0 8.0 0.00 0.00 0.00 1012.6
20260505004213 63 247 4.0 7.0 0.00 0.00 0.00 1012.8
20260505004113 63 202 5.0 6.0 0.00 0.00 0.00 1012.9
20260505004013 63 225 7.0 10.0 0.00 0.00 0.00 1012.9
20260505003914 63 202 8.0 11.0 0.00 0.00 0.00 1013.0
20260505003213 63 202 3.0 5.0 0.00 0.00 0.00 1012.9
20260505002813 64 180 6.0 9.0 0.00 0.00 0.00 1012.8
20260505002413 64 247 8.0 13.0 0.00 0.00 0.00 1012.8
20260505002313 64 225 6.0 11.0 0.00 0.00 0.00 1012.8
20260505001913 64 225 6.0 8.0 0.00 0.00 0.00 1012.8
20260505001813 65 202 7.0 9.0 0.00 0.00 0.00 1012.8
20260505000814 64 202 4.0 8.0 0.00 0.00 0.00 1012.7
20260505000113 64 225 6.0 10.0 0.00 0.00 0.00 1012.6
20260504235413 64 225 9.0 11.0 0.00 0.00 0.00 1012.8
20260504235013 64 202 8.0 10.0 0.00 0.00 0.00 1012.7
20260504234613 64 225 8.0 10.0 0.00 0.00 0.00 1012.6
20260504234514 65 225 8.0 10.0 0.00 0.00 0.00 1012.6
20260504234413 65 225 8.0 10.0 0.00 0.00 0.00 1012.6
20260504234013 65 112 4.0 8.0 0.00 0.00 0.00 1012.7
20260504233313 66 225 3.0 9.0 0.00 0.00 0.00 1012.4
20260504232613 67 202 5.0 10.0 0.00 0.00 0.00 1012.6
20260504232513 67 270 3.0 5.0 0.00 0.00 0.00 1012.3
20260504232113 67 247 3.0 5.0 0.00 0.00 0.00 1012.4
20260504231113 67 180 5.0 8.0 0.00 0.00 0.00 1012.5
20260504231013 67 202 9.0 13.0 0.00 0.00 0.00 1012.6
20260504230913 67 202 7.0 11.0 0.00 0.00 0.00 1012.4
20260504230213 67 225 5.0 9.0 0.00 0.00 0.00 1012.6
20260504230113 67 225 9.0 12.0 0.00 0.00 0.00 1012.5
20260504225413 66 202 5.0 7.0 0.00 0.00 0.00 1012.8
20260504225014 66 202 3.0 5.0 0.00 0.00 0.00 1012.7
20260504224613 66 247 8.0 11.0 0.00 0.00 0.00 1012.7
20260504224513 66 225 9.0 11.0 0.00 0.00 0.00 1012.6
20260504224413 66 202 5.0 9.0 0.00 0.00 0.00 1012.7
20260504224313 66 202 4.0 7.0 0.00 0.00 0.00 1012.7
20260504223913 66 247 6.0 11.0 0.00 0.00 0.00 1012.9
20260504223813 66 157 8.0 11.0 0.00 0.00 0.00 1012.9
20260504223413 67 225 7.0 11.0 0.00 0.00 0.00 1012.9
20260504223313 68 135 7.0 9.0 0.00 0.00 0.00 1012.6
20260504222913 68 225 8.0 13.0 0.00 0.00 0.00 1012.9
20260504222213 69 202 7.0 12.0 0.00 0.00 0.00 1012.9
20260504222113 69 225 6.0 10.0 0.00 0.00 0.00 1012.9
20260504220513 70 225 7.0 10.0 0.00 0.00 0.00 1013.2
20260504220413 70 202 4.0 9.0 0.00 0.00 0.00 1013.1
20260504220313 69 157 6.0 10.0 0.00 0.00 0.00 1013.1
20260504220213 70 180 5.0 9.0 0.00 0.00 0.00 1013.2
20260504220113 70 202 4.0 7.0 0.00 0.00 0.00 1013.3
20260504215713 69 180 6.0 10.0 0.00 0.00 0.00 1013.3
20260504215613 69 225 9.0 14.0 0.00 0.00 0.00 1013.3
20260504215213 69 270 10.0 14.0 0.00 0.00 0.00 1013.5
20260504215113 69 225 9.0 12.0 0.00 0.00 0.00 1013.4
20260504215013 69 247 9.0 15.0 0.00 0.00 0.00 1013.3
20260504214313 68 202 10.0 14.0 0.00 0.00 0.00 1013.3
20260504214213 68 225 9.0 15.0 0.00 0.00 0.00 1013.3
20260504214113 69 180 9.0 14.0 0.00 0.00 0.00 1013.3
20260504214013 69 225 8.0 11.0 0.00 0.00 0.00 1013.3
20260504213613 69 202 5.0 7.0 0.00 0.00 0.00 1013.3
20260504213513 69 225 4.0 6.0 0.00 0.00 0.00 1013.3
20260504213413 69 202 4.0 10.0 0.00 0.00 0.00 1013.3
20260504213313 69 225 8.0 12.0 0.00 0.00 0.00 1013.3
20260504211713 70 180 4.0 8.0 0.00 0.00 0.00 1013.3
20260504211614 70 225 2.0 4.0 0.00 0.00 0.00 1013.3
20260504211213 70 157 2.0 5.0 0.00 0.00 0.00 1013.4
20260504211113 71 202 3.0 4.0 0.00 0.00 0.00 1013.4
20260504210713 71 225 6.0 9.0 0.00 0.00 0.00 1013.4
20260504210613 72 202 9.0 11.0 0.00 0.00 0.00 1013.3
20260504205913 67 292 3.0 3.0 0.00 0.00 0.00 1013.3
20260504205513 67 202 4.0 7.0 0.00 0.00 0.00 1013.5
20260504204813 68 180 2.0 5.0 0.00 0.00 0.00 1013.5
20260504204413 68 270 2.0 3.0 0.00 0.00 0.00 1013.5
20260504204013 68 270 3.0 4.0 0.00 0.00 0.00 1013.5
20260504203913 68 247 2.0 4.0 0.00 0.00 0.00 1013.4
20260504202614 67 292 1.0 2.0 0.00 0.00 0.00 1013.4
20260504202513 67 292 2.0 3.0 0.00 0.00 0.00 1013.6
20260504202113 67 225 3.0 4.0 0.00 0.00 0.00 1013.4
20260504202013 67 225 3.0 5.0 0.00 0.00 0.00 1013.6
20260504201913 67 202 5.0 8.0 0.00 0.00 0.00 1013.7
20260504201814 67 270 2.0 4.0 0.00 0.00 0.00 1013.7
20260504201114 65 180 3.0 4.0 0.00 0.00 0.00 1013.9
20260504195513 67 180 2.0 3.0 0.00 0.00 0.00 1014.0
20260504195113 67 202 1.0 2.0 0.00 0.00 0.00 1014.0
20260504193813 65 202 3.0 4.0 0.00 0.00 0.00 1014.0
20260504193413 64 225 6.0 7.0 0.00 0.00 0.00 1014.1
20260504193013 63 270 3.0 4.0 0.00 0.00 0.00 1014.3
20260504192913 63 247 3.0 4.0 0.00 0.00 0.00 1014.3
20260504192813 63 0 2.0 3.0 0.00 0.00 0.00 1014.1
20260504192413 62 112 1.0 4.0 0.00 0.00 0.00 1014.3
20260504192013 62 225 5.0 7.0 0.00 0.00 0.00 1014.3
20260504191913 62 202 4.0 6.0 0.00 0.00 0.00 1014.0
20260504191213 62 225 2.0 3.0 0.00 0.00 0.00 1013.9
20260504190213 63 225 3.0 5.0 0.00 0.00 0.00 1014.0
20260504190113 63 202 2.0 4.0 0.00 0.00 0.00 1013.9
20260504185113 65 112 1.0 1.0 0.00 0.00 0.00 1014.4
20260504184114 64 180 1.0 2.0 0.00 0.00 0.00 1014.2
20260504184013 63 180 4.0 9.0 0.00 0.00 0.00 1014.3
20260504183913 63 247 5.0 9.0 0.00 0.00 0.00 1014.0
20260504183813 63 202 3.0 4.0 0.00 0.00 0.00 1014.1
20260504183113 64 225 3.0 6.0 0.00 0.00 0.00 1014.1
20260504181513 64 225 2.0 3.0 0.00 0.00 0.00 1014.3
20260504181413 64 90 1.0 2.0 0.00 0.00 0.00 1014.3
20260504181313 64 112 1.0 1.0 0.00 0.00 0.00 1014.3
20260504180913 64 315 1.0 2.0 0.00 0.00 0.00 1014.3
20260504175613 64 180 1.0 1.0 0.00 0.00 0.00 1014.4
20260504175513 64 157 5.0 7.0 0.00 0.00 0.00 1014.3
20260504175413 64 225 2.0 5.0 0.00 0.00 0.00 1014.3
20260504175313 63 180 2.0 4.0 0.00 0.00 0.00 1014.4
20260504174313 64 90 0.0 0.0 0.00 0.00 0.00 1014.3
20260504173913 64 202 3.0 5.0 0.00 0.00 0.00 1014.3
20260504173813 64 292 0.0 1.0 0.00 0.00 0.00 1014.2
20260504173113 64 180 1.0 2.0 0.00 0.00 0.00 1014.3
20260504172713 63 292 1.0 2.0 0.00 0.00 0.00 1014.4
20260504172313 63 270 2.0 4.0 0.00 0.00 0.00 1014.3
20260504172213 63 315 1.0 2.0 0.00 0.00 0.00 1014.3
20260504171814 62 225 1.0 1.0 0.00 0.00 0.00 1014.3
20260504171713 62 157 1.0 2.0 0.00 0.00 0.00 1014.3
20260504171613 62 225 1.0 2.0 0.00 0.00 0.00 1014.3
20260504171213 62 180 0.0 1.0 0.00 0.00 0.00 1014.3
20260504160413 60 112 2.0 4.0 0.00 0.00 0.00 1014.1
20260504141213 53 90 0.0 0.0 0.00 0.00 0.00 1013.4
20260504140813 53 90 1.0 1.0 0.00 0.00 0.00 1013.5
20260504140713 53 90 0.0 1.0 0.00 0.00 0.00 1013.5
20260504140613 53 112 0.0 0.0 0.00 0.00 0.00 1013.6
20260504140513 53 112 0.0 1.0 0.00 0.00 0.00 1013.4
20260504140113 53 45 1.0 3.0 0.00 0.00 0.00 1013.5
20260504130313 51 45 0.0 0.0 0.00 0.00 0.00 1013.8
20260504130213 51 45 0.0 0.0 0.00 0.00 0.00 1013.6
20260504110713 49 22 1.0 2.0 0.00 0.00 0.00 1012.7
20260504110613 49 0 1.0 2.0 0.00 0.00 0.00 1012.9
20260504110513 49 22 1.0 1.0 0.00 0.00 0.00 1012.7
20260504110114 48 337 1.0 2.0 0.00 0.00 0.00 1012.9
20260504100513 50 22 0.0 1.0 0.00 0.00 0.00 1012.9
20260504100113 50 315 1.0 1.0 0.00 0.00 0.00 1012.8
20260504080513 56 180 0.0 0.0 0.00 0.00 0.00 1014.0
20260504080413 56 202 0.0 0.0 0.00 0.00 0.00 1014.0
20260504080313 56 157 0.0 0.0 0.00 0.00 0.00 1013.9
20260504080213 56 157 0.0 2.0 0.00 0.00 0.00 1014.0
20260504080113 56 247 0.0 0.0 0.00 0.00 0.00 1014.1
20260504070113 56 202 1.0 2.0 0.00 0.00 0.00 1013.7
20260504045613 57 157 1.0 2.0 0.00 0.00 0.00 1013.5
20260504045513 57 202 2.0 3.0 0.00 0.00 0.00 1013.5
20260504045413 57 180 1.0 2.0 0.00 0.00 0.00 1013.4
20260504045013 57 202 1.0 2.0 0.00 0.00 0.00 1013.5
20260504044314 57 180 0.0 1.0 0.00 0.00 0.00 1013.6
20260504044213 57 157 1.0 2.0 0.00 0.00 0.00 1013.4
20260504044113 57 225 2.0 4.0 0.00 0.00 0.00 1013.6
20260504043713 57 202 2.0 4.0 0.00 0.00 0.00 1013.6
20260504043613 57 180 3.0 6.0 0.00 0.00 0.00 1013.6
20260504043213 57 202 3.0 4.0 0.00 0.00 0.00 1013.6
20260504043113 58 202 4.0 5.0 0.00 0.00 0.00 1013.6
20260504042713 58 157 1.0 3.0 0.00 0.00 0.00 1013.4
20260504042613 58 247 3.0 5.0 0.00 0.00 0.00 1013.6
20260504042513 58 202 2.0 4.0 0.00 0.00 0.00 1013.6
20260504042115 58 202 2.0 2.0 0.00 0.00 0.00 1013.6
20260504042015 58 225 2.0 4.0 0.00 0.00 0.00 1013.4
20260504041913 58 202 3.0 4.0 0.00 0.00 0.00 1013.3
20260504041813 58 202 1.0 3.0 0.00 0.00 0.00 1013.4
20260504040213 58 225 2.0 3.0 0.00 0.00 0.00 1013.1
20260504035813 58 202 2.0 4.0 0.00 0.00 0.00 1013.1
20260504035713 58 202 2.0 3.0 0.00 0.00 0.00 1013.1
20260504035613 58 225 2.0 4.0 0.00 0.00 0.00 1013.1
20260504035513 58 247 2.0 2.0 0.00 0.00 0.00 1013.1
20260504035113 58 202 2.0 4.0 0.00 0.00 0.00 1013.1
20260504034113 58 225 4.0 5.0 0.00 0.00 0.00 1013.4
20260504034013 58 225 3.0 4.0 0.00 0.00 0.00 1013.3
20260504033614 58 225 2.0 4.0 0.00 0.00 0.00 1013.0
20260504032613 58 225 1.0 3.0 0.00 0.00 0.00 1012.9
20260504032213 58 225 2.0 3.0 0.00 0.00 0.00 1012.8
20260504031813 58 202 4.0 5.0 0.00 0.00 0.00 1012.7
20260504031713 58 225 1.0 2.0 0.00 0.00 0.00 1012.8
20260504031313 58 202 3.0 3.0 0.00 0.00 0.00 1012.7
20260504030913 58 225 3.0 5.0 0.00 0.00 0.00 1012.6